This is the latest recevied weather packets stored in our database for station/object KA3ZXO. If no packets are shown the sender has not sent any weather packets the latest 10 day(s).
| Time | Temp. | Humidity | Pressure | Rain* | Wind** | Luminosity | Snow |
|---|---|---|---|---|---|---|---|
| 1777818697 | 10° C | 43% | 1017 hPa | 0 mm | - | 62 W/m² | - |
| 1777818096 | 10° C | 42% | 1017.1 hPa | 0 mm | - | 26 W/m² | - |
| 1777817496 | 10° C | 43% | 1017 hPa | 0 mm | - | 28 W/m² | - |
| 1777816895 | 10° C | 47% | 1016.8 hPa | 0 mm | - | 27 W/m² | - |
| 1777816294 | 10° C | 46% | 1016.8 hPa | 0 mm | - | 33 W/m² | - |
| 1777815689 | 9.44° C | 46% | 1017.1 hPa | 0 mm | - | 46 W/m² | - |
| 1777815089 | 9.44° C | 49% | 1016.9 hPa | 0 mm | - | 36 W/m² | - |
| 1777814488 | 9.44° C | 51% | 1016.9 hPa | 0 mm | - | 23 W/m² | - |
| 1777813888 | 8.89° C | 50% | 1017.1 hPa | 0 mm | - | 21 W/m² | - |
| 1777813283 | 8.89° C | 50% | 1017 hPa | 0 mm | - | 21 W/m² | - |
| 1777812678 | 8.89° C | 53% | 1017 hPa | 0 mm | - | 18 W/m² | - |
| 1777812073 | 8.33° C | 55% | 1016.8 hPa | 0 mm | - | 17 W/m² | - |
| 1777811473 | 8.33° C | 57% | 1016.9 hPa | 0 mm | - | 16 W/m² | - |
| 1777810873 | 7.78° C | 58% | 1016.7 hPa | 0 mm | - | 16 W/m² | - |
| 1777810272 | 7.78° C | 58% | 1016.6 hPa | 0 mm | - | 15 W/m² | - |
| 1777809672 | 7.78° C | 60% | 1016.7 hPa | 0 mm | - | 18 W/m² | - |
| 1777809066 | 7.78° C | 61% | 1016.6 hPa | 0 mm | - | 13 W/m² | - |
| 1777808466 | 7.22° C | 63% | 1016.2 hPa | 0 mm | - | 12 W/m² | - |
| 1777807862 | 6.67° C | 65% | 1016.4 hPa | 0 mm | - | 12 W/m² | - |
| 1777807262 | 6.67° C | 65% | 1016.1 hPa | 0 mm | - | 11 W/m² | - |
| 1777806661 | 6.11° C | 68% | 1016 hPa | 0 mm | - | 10 W/m² | - |
| 1777806060 | 6.11° C | 69% | 1015.9 hPa | 0 mm | - | 9 W/m² | - |
| 1777805460 | 6.11° C | 69% | 1015.6 hPa | 0 mm | - | 8 W/m² | - |
| 1777804855 | 6.11° C | 69% | 1015.4 hPa | 0 mm | - | 6 W/m² | - |
| 1777804250 | 6.11° C | 68% | 1015.2 hPa | 0 mm | - | 5 W/m² | - |
* Rain latest hour (hover to see other rain measurements)
** Current wind speed in m/s (hover to see current wind gust speed)